Starlink 11311

operational
NORAD ID: 61253 Int'l Des: 2024-175 Owner: SPXS Country: US Constellation: starlink
LEOCIRCULAR

Starlink 11311について

説明を読み込み中...

リアルタイム位置

3D地球を読み込み中...

次回通過

高度履歴

Altitude vs Time

uPlot chart will show altitude changes over time

軌道要素

1 61253U 24175L 25259.55282171 -.00002800 00000-0 -18278-4 0 9992
2 61253 53.1594 194.8897 0001113 78.5120 281.6023 15.69690556 57221
Epoch: Sep 16, 2025 • Age: 15 hours

現在のステータス

高度 368.0 km
速度 7.69 km/s
衛星直下点 -26.30°S, 21.74°W
打ち上げ日 Sep 25, 2024
運用期間 0.9 years
タイプ internet

技術仕様

分類 Payload
質量 960.00 kg
乾燥質量 910.00 kg
総質量 960.00 kg
長さ 0.30 m
直径 4.10 m
スパン 29.00 m
形状 Box + pan
製造者 SPXS
バスタイプ Starlink V2MD
フェーズステータス In Orbit
所有者/国 SPXS/US

大規模コンステレーション

Loading constellations...